TimeAKST,TemperatureF,Dew PointF,Humidity,Sea Level PressureIn,VisibilityMPH,Wind Direction,Wind SpeedMPH,Gust SpeedMPH,PrecipitationIn,Events,Conditions,WindDirDegrees,DateUTC
12:53 AM,-0.9,-9.0,69,30.12,10.0,Calm,Calm,-,N/A,,Clear,0,2012-11-24 09:53:00
1:53 AM,-7.1,-13.0,75,30.12,10.0,Calm,Calm,-,N/A,,Clear,0,2012-11-24 10:53:00
2:53 AM,-8.0,-14.1,75,30.12,10.0,ESE,5.8,-,N/A,,Clear,120,2012-11-24 11:53:00
3:53 AM,-0.9,-11.0,62,30.12,10.0,East,10.4,-,N/A,,Clear,80,2012-11-24 12:53:00
4:53 AM,1.9,-9.0,60,30.12,10.0,NE,8.1,-,N/A,,Clear,50,2012-11-24 13:53:00
5:53 AM,1.0,-9.9,60,30.12,10.0,ENE,6.9,-,N/A,,Clear,70,2012-11-24 14:53:00
6:53 AM,3.0,-9.0,57,30.12,10.0,ENE,11.5,-,N/A,,Clear,60,2012-11-24 15:53:00
7:53 AM,1.9,-9.9,58,30.12,10.0,ENE,10.4,-,N/A,,Clear,70,2012-11-24 16:53:00
8:53 AM,1.9,-9.9,58,30.13,10.0,ENE,8.1,-,N/A,,Clear,60,2012-11-24 17:53:00
9:53 AM,-0.0,-9.9,63,30.13,10.0,ENE,8.1,-,N/A,,Clear,70,2012-11-24 18:53:00
10:53 AM,1.9,-9.9,58,30.14,10.0,ENE,6.9,-,N/A,,Clear,60,2012-11-24 19:53:00
11:53 AM,1.9,-9.0,60,30.15,10.0,ENE,6.9,-,0.00,,Clear,70,2012-11-24 20:53:00
12:53 PM,1.0,-9.9,60,30.16,10.0,East,5.8,-,0.00,,Clear,100,2012-11-24 21:53:00
1:53 PM,1.0,-9.9,60,30.15,10.0,Calm,Calm,-,0.00,,Clear,0,2012-11-24 22:53:00
2:53 PM,3.0,-9.0,57,30.15,10.0,ENE,6.9,-,0.00,,Clear,70,2012-11-24 23:53:00
3:53 PM,1.9,-9.0,60,30.16,10.0,East,3.5,-,0.00,,Clear,90,2012-11-25 00:53:00
4:53 PM,-4.0,-11.0,72,30.17,10.0,Calm,Calm,-,N/A,,Clear,0,2012-11-25 01:53:00
5:53 PM,-9.9,-15.0,78,30.17,10.0,Calm,Calm,-,N/A,,Clear,0,2012-11-25 02:53:00
6:53 PM,-9.9,-13.0,86,30.18,10.0,Calm,Calm,-,N/A,,Clear,0,2012-11-25 03:53:00
7:53 PM,3.0,-7.1,63,30.18,10.0,ENE,6.9,-,N/A,,Clear,60,2012-11-25 04:53:00
8:53 PM,3.9,-7.1,60,30.19,10.0,ENE,5.8,-,N/A,,Clear,60,2012-11-25 05:53:00
9:53 PM,1.9,-8.0,63,30.22,10.0,Calm,Calm,-,N/A,,Clear,0,2012-11-25 06:53:00
10:53 PM,-7.1,-11.9,79,30.24,10.0,Calm,Calm,-,N/A,,Clear,0,2012-11-25 07:53:00
11:53 PM,-6.0,-13.0,72,30.25,10.0,North,3.5,-,N/A,,Clear,360,2012-11-25 08:53:00